• In Belarus
  • List of Countries
  • For 7 days
  • Water Temperature
  • Weather Map
  • Weather Widgets
  • user-avatar
    Login

    Hourly Weather Tsumeb

    Today, 17 October, Thursday

    Time Temperature Precipitation Wind Pressure Humidity
    00:00 +26°C° 0 mm 4 mps 655 mmHg 19%
    01:00 +25°C° 0 mm 4 mps 655 mmHg 21%
    02:00 +25°C° 0 mm 4 mps 654 mmHg 22%
    03:00 +23°C° 0 mm 4 mps 654 mmHg 24%
    04:00 +22°C° 0 mm 5 mps 654 mmHg 26%
    05:00 +24°C° 0 mm 6 mps 655 mmHg 26%
    06:00 +26°C° 0 mm 7 mps 655 mmHg 26%
    07:00 +27°C° 0 mm 8 mps 656 mmHg 26%
    08:00 +29°C° 0 mm 8 mps 657 mmHg 22%
    09:00 +33°C° 0 mm 8 mps 657 mmHg 18%
    10:00 +36°C° 0 mm 7 mps 658 mmHg 14%
    11:00 +36°C° 0 mm 7 mps 657 mmHg 13%
    12:00 +38°C° 0 mm 7 mps 657 mmHg 11%
    13:00 +39°C° 0 mm 6 mps 656 mmHg 10%
    14:00 +39°C° 0 mm 6 mps 655 mmHg 10%
    15:00 +38°C° 0 mm 6 mps 655 mmHg 10%
    16:00 +38°C° 0 mm 6 mps 654 mmHg 10%
    17:00 +35°C° 0 mm 5 mps 654 mmHg 12%
    18:00 +33°C° 0 mm 5 mps 653 mmHg 14%
    19:00 +29°C° 0 mm 4 mps 653 mmHg 16%
    20:00 +28°C° 0 mm 4 mps 653 mmHg 16%
    21:00 +27°C° 0 mm 4 mps 654 mmHg 17%
    22:00 +26°C° 0 mm 3 mps 654 mmHg 17%
    23:00 +26°C° 0 mm 4 mps 654 mmHg 17%

    Tomorrow, 18 October, Friday

    Time Temperature Precipitation Wind Pressure Humidity
    00:00 +25°C° 0 mm 4 mps 654 mmHg 16%
    01:00 +25°C° 0 mm 5 mps 654 mmHg 15%
    02:00 +23°C° 0 mm 5 mps 653 mmHg 16%
    03:00 +22°C° 0 mm 5 mps 653 mmHg 16%
    04:00 +22°C° 0 mm 4 mps 653 mmHg 17%
    05:00 +23°C° 0 mm 5 mps 654 mmHg 16%
    06:00 +24°C° 0 mm 6 mps 655 mmHg 15%
    07:00 +27°C° 0 mm 6 mps 656 mmHg 14%
    08:00 +29°C° 0 mm 6 mps 656 mmHg 13%
    09:00 +32°C° 0 mm 6 mps 656 mmHg 12%
    10:00 +34°C° 0 mm 6 mps 657 mmHg 10%
    11:00 +35°C° 0 mm 5 mps 656 mmHg 10%
    12:00 +36°C° 0 mm 5 mps 655 mmHg 9%
    13:00 +37°C° 0 mm 4 mps 655 mmHg 8%
    14:00 +37°C° 0 mm 4 mps 654 mmHg 8%
    15:00 +37°C° 0 mm 4 mps 654 mmHg 7%
    16:00 +37°C° 0 mm 3 mps 653 mmHg 7%
    17:00 +34°C° 0 mm 3 mps 653 mmHg 9%
    18:00 +31°C° 0 mm 3 mps 652 mmHg 10%
    19:00 +28°C° 0 mm 2 mps 652 mmHg 12%
    20:00 +27°C° 0 mm 3 mps 652 mmHg 12%
    21:00 +27°C° 0 mm 3 mps 653 mmHg 12%
    22:00 +27°C° 0 mm 3 mps 653 mmHg 12%
    23:00 +26°C° 0 mm 3 mps 653 mmHg 13%

    Day after tomorrow, 19 October, Saturday

    Time Temperature Precipitation Wind Pressure Humidity
    00:00 +25°C° 0 mm 3 mps 652 mmHg 13%
    01:00 +25°C° 0 mm 3 mps 652 mmHg 14%
    02:00 +24°C° 0 mm 3 mps 652 mmHg 14%
    03:00 +24°C° 0 mm 3 mps 652 mmHg 14%
    04:00 +23°C° 0 mm 4 mps 652 mmHg 14%
    05:00 +25°C° 0 mm 4 mps 653 mmHg 13%
    06:00 +26°C° 0 mm 5 mps 654 mmHg 12%
    07:00 +28°C° 0 mm 6 mps 655 mmHg 11%
    08:00 +30°C° 0 mm 6 mps 655 mmHg 9%
    09:00 +34°C° 0 mm 6 mps 655 mmHg 8%
    10:00 +38°C° 0 mm 6 mps 656 mmHg 6%
    11:00 +39°C° 0 mm 5 mps 655 mmHg 6%
    12:00 +40°C° 0 mm 5 mps 655 mmHg 5%
    13:00 +40°C° 0 mm 5 mps 654 mmHg 5%
    14:00 +40°C° 0 mm 5 mps 654 mmHg 5%
    15:00 +40°C° 0 mm 5 mps 654 mmHg 5%
    16:00 +40°C° 0 mm 4 mps 653 mmHg 5%
    17:00 +36°C° 0 mm 4 mps 653 mmHg 6%
    18:00 +33°C° 0 mm 3 mps 652 mmHg 7%
    19:00 +29°C° 0 mm 3 mps 652 mmHg 8%
    20:00 +28°C° 0 mm 3 mps 652 mmHg 9%
    21:00 +28°C° 0 mm 4 mps 652 mmHg 10%
    22:00 +27°C° 0 mm 4 mps 653 mmHg 10%
    23:00 +26°C° 0 mm 4 mps 652 mmHg 10%

    20 October, Sunday

    Time Temperature Precipitation Wind Pressure Humidity
    00:00 +26°C° 0 mm 4 mps 652 mmHg 10%
    01:00 +25°C° 0 mm 3 mps 652 mmHg 10%
    02:00 +25°C° 0 mm 3 mps 652 mmHg 10%
    03:00 +25°C° 0 mm 3 mps 652 mmHg 10%
    04:00 +25°C° 0 mm 3 mps 652 mmHg 10%
    05:00 +26°C° 0 mm 4 mps 653 mmHg 10%
    06:00 +28°C° 0 mm 4 mps 654 mmHg 10%
    07:00 +29°C° 0 mm 5 mps 655 mmHg 10%
    08:00 +33°C° 0 mm 5 mps 655 mmHg 9%
    09:00 +36°C° 0 mm 6 mps 656 mmHg 7%
    10:00 +40°C° 0 mm 6 mps 656 mmHg 6%
    11:00 +40°C° 0 mm 6 mps 656 mmHg 6%
    12:00 +41°C° 0 mm 6 mps 655 mmHg 6%
    13:00 +42°C° 0 mm 6 mps 655 mmHg 5%
    14:00 +42°C° 0 mm 6 mps 654 mmHg 5%
    15:00 +41°C° 0 mm 6 mps 654 mmHg 6%
    16:00 +41°C° 0 mm 6 mps 653 mmHg 6%
    17:00 +37°C° 0 mm 5 mps 653 mmHg 7%
    18:00 +34°C° 0 mm 4 mps 652 mmHg 9%
    19:00 +31°C° 0 mm 3 mps 652 mmHg 10%
    20:00 +30°C° 0 mm 3 mps 652 mmHg 10%
    21:00 +29°C° 0 mm 3 mps 652 mmHg 11%
    22:00 +28°C° 0 mm 3 mps 652 mmHg 11%
    23:00 +27°C° 0 mm 3 mps 652 mmHg 12%

    21 October, Monday

    Time Temperature Precipitation Wind Pressure Humidity
    00:00 +26°C° 0 mm 2 mps 652 mmHg 13%
    01:00 +25°C° 0 mm 2 mps 652 mmHg 14%
    02:00 +25°C° 0 mm 2 mps 652 mmHg 14%
    03:00 +24°C° 0 mm 2 mps 652 mmHg 14%
    04:00 +24°C° 0 mm 2 mps 652 mmHg 15%
    05:00 +26°C° 0 mm 3 mps 652 mmHg 13%
    06:00 +28°C° 0 mm 3 mps 653 mmHg 12%
    07:00 +30°C° 0 mm 3 mps 654 mmHg 11%
    08:00 +34°C° 0 mm 4 mps 654 mmHg 9%
    09:00 +36°C° 0 mm 5 mps 655 mmHg 8%
    10:00 +40°C° 0 mm 6 mps 655 mmHg 6%
    11:00 +41°C° 0 mm 5 mps 655 mmHg 6%
    12:00 +42°C° 0 mm 5 mps 654 mmHg 6%
    13:00 +42°C° 0 mm 4 mps 654 mmHg 5%
    14:00 +42°C° 0 mm 4 mps 653 mmHg 6%
    15:00 +42°C° 0 mm 4 mps 652 mmHg 6%
    16:00 +42°C° 0 mm 4 mps 652 mmHg 6%
    17:00 +37°C° 0 mm 3 mps 651 mmHg 7%
    18:00 +34°C° 0 mm 2 mps 651 mmHg 9%
    19:00 +30°C° 0 mm 1 mps 650 mmHg 11%
    20:00 +29°C° 0 mm 2 mps 651 mmHg 12%
    21:00 +29°C° 0 mm 3 mps 651 mmHg 14%
    22:00 +28°C° 0 mm 4 mps 651 mmHg 15%
    23:00 +28°C° 0 mm 5 mps 651 mmHg 16%

    22 October, Tuesday

    Time Temperature Precipitation Wind Pressure Humidity
    00:00 +28°C° 0 mm 6 mps 651 mmHg 17%
    01:00 +28°C° 0 mm 8 mps 651 mmHg 18%
    02:00 +28°C° 0 mm 8 mps 651 mmHg 18%
    03:00 +28°C° 0 mm 8 mps 651 mmHg 17%
    04:00 +27°C° 0 mm 8 mps 651 mmHg 17%
    05:00 +29°C° 0 mm 8 mps 652 mmHg 15%
    06:00 +30°C° 0 mm 7 mps 652 mmHg 14%
    07:00 +33°C° 0 mm 7 mps 653 mmHg 13%
    08:00 +35°C° 0 mm 6 mps 653 mmHg 11%
    09:00 +37°C° 0 mm 5 mps 653 mmHg 10%
    10:00 +40°C° 0 mm 4 mps 654 mmHg 8%
    11:00 +40°C° 0 mm 3 mps 653 mmHg 8%
    12:00 +40°C° 0 mm 2 mps 652 mmHg 7%
    13:00 +41°C° 0 mm 2 mps 652 mmHg 7%
    14:00 +41°C° 0 mm 2 mps 651 mmHg 7%
    15:00 +41°C° 0 mm 2 mps 651 mmHg 7%
    16:00 +40°C° 0 mm 2 mps 650 mmHg 7%
    17:00 +38°C° 0 mm 2 mps 650 mmHg 9%
    18:00 +36°C° 0 mm 2 mps 650 mmHg 10%
    19:00 +34°C° 0 mm 2 mps 650 mmHg 12%
    20:00 +33°C° 0 mm 5 mps 650 mmHg 10%
    21:00 +32°C° 0 mm 7 mps 651 mmHg 9%
    22:00 +31°C° 0 mm 10 mps 651 mmHg 8%
    23:00 +29°C° 0 mm 10 mps 651 mmHg 8%
    Show more